Location: Lichtensteig
(47.3376°N, 9.0841°E)
Time: 10:11:35
(UTC+00:00)

Cosmos 2218 Rocket - Pass Details

Date: 03 March 2021
Orbit: 955 x 1007 km, 82.9° (Epoch: 10 April)

Event Time Altitude Azimuth Distance (km) Brightness Sun altitude
Rises 18:47:42 0° 172° (S) 3,720 6.9 -17.0°
Reaches altitude 10° 18:50:16 10° 168° (SSE) 2,776 6.2 -17.4°
Maximum altitude 18:56:28 56° 92° (E) 1,187 4.1 -18.4°
Drops below altitude 10° 19:02:42 10° 16° (NNE) 2,788 6.3 -19.5°
Sets 19:05:17 0° 13° (NNE) 3,737 7.1 -19.9°
